FW5837 Weather Reports


Display with metric or nautical units.
time (UTC)temp
F
wind
direction
speed
MPH
gust
MPH
rain 1hr
in
rain 24hr
in
rain mn
in
humidity
%
barometer
mb
20260503232030 43 249 5.0 12.0 0.00 0.00 0.00 44 1006.5
20260503231546 43 254 6.0 12.0 0.00 0.00 0.00 42 1006.4
20260503231030 44 246 6.0 12.0 0.00 0.00 0.00 43 1006.4
20260503230530 44 257 6.0 12.0 0.00 0.00 0.00 42 1006.4
20260503230045 44 261 6.0 13.0 0.00 0.00 0.00 43 1006.5
20260503225529 44 229 4.0 13.0 0.00 0.00 0.00 44 1006.4
20260503225033 44 265 6.0 13.0 0.00 0.00 0.00 43 1006.4
20260503224545 44 240 4.0 12.0 0.00 0.00 0.00 44 1006.4
20260503224029 43 262 5.0 13.0 0.00 0.00 0.00 45 1006.4
20260503223531 43 269 7.0 13.0 0.00 0.00 0.00 45 1006.4
20260503223044 43 265 4.0 19.0 0.00 0.00 0.00 45 1006.4
20260503222530 43 244 8.0 19.0 0.00 0.00 0.00 45 1006.4
20260503222035 43 238 7.0 18.0 0.00 0.00 0.00 44 1006.2
20260503221546 43 276 7.0 18.0 0.00 0.00 0.00 44 1006.4
20260503221032 44 236 9.0 18.0 0.00 0.00 0.00 44 1006.4
20260503220533 44 269 7.0 14.0 0.00 0.00 0.00 45 1006.3
20260503220049 44 214 7.0 14.0 0.00 0.00 0.00 45 1006.4
20260503215528 44 263 7.0 24.0 0.00 0.00 0.00 44 1006.5
20260503215031 44 235 6.0 24.0 0.00 0.00 0.00 45 1006.4
20260503214545 44 229 7.0 17.0 0.00 0.00 0.00 44 1006.4
20260503214031 45 221 7.0 17.0 0.00 0.00 0.00 44 1006.4
20260503213528 45 235 8.0 17.0 0.00 0.00 0.00 43 1006.4
20260503213045 45 254 6.0 14.0 0.00 0.00 0.00 46 1006.5
20260503212529 44 225 6.0 17.0 0.00 0.00 0.00 45 1006.4
20260503212030 44 262 6.0 17.0 0.00 0.00 0.00 47 1006.4
20260503211544 45 248 8.0 17.0 0.00 0.00 0.00 43 1006.4
20260503211032 46 182 5.0 16.0 0.00 0.00 0.00 45 1006.3
20260503210533 44 238 6.0 16.0 0.00 0.00 0.00 45 1006.2
20260503210043 45 242 6.0 16.0 0.00 0.00 0.00 46 1006.1
20260503205529 44 275 8.0 16.0 0.00 0.00 0.00 45 1006.2
20260503205029 44 292 4.0 15.0 0.00 0.00 0.00 49 1006.2
20260503204543 42 246 6.0 15.0 0.00 0.00 0.00 50 1006.4
20260503204031 42 263 8.0 14.0 0.00 0.00 0.00 48 1006.2
20260503203534 43 238 8.0 13.0 0.00 0.00 0.00 48 1006.3
20260503203040 44 296 6.0 20.0 0.00 0.00 0.00 47 1006.3
20260503202532 45 250 6.0 20.0 0.00 0.00 0.00 47 1006.3
20260503202029 45 202 7.0 16.0 0.00 0.00 0.00 47 1006.2
20260503201546 44 257 6.0 16.0 0.00 0.00 0.00 46 1006.4
20260503201031 45 239 6.0 17.0 0.00 0.00 0.00 46 1006.1
20260503200528 44 266 8.0 18.0 0.00 0.00 0.00 46 1006.2
20260503200050 44 227 8.0 18.0 0.00 0.00 0.00 46 1006.3
20260503195531 43 201 7.0 15.0 0.00 0.00 0.00 47 1006.2
20260503195034 44 223 6.0 20.0 0.00 0.00 0.00 47 1006.4
20260503194543 44 258 7.0 20.0 0.00 0.00 0.00 48 1006.3
20260503194029 44 252 11.0 20.0 0.00 0.00 0.00 45 1006.3
20260503193533 45 244 7.0 15.0 0.00 0.00 0.00 47 1006.2
20260503193045 43 235 8.0 16.0 0.00 0.00 0.00 48 1006.4
20260503192529 42 257 7.0 20.0 0.00 0.00 0.00 49 1006.5
20260503192031 42 250 7.0 20.0 0.00 0.00 0.00 48 1006.6
20260503191549 43 257 7.0 19.0 0.00 0.00 0.00 48 1006.4
20260503191031 43 282 10.0 20.0 0.00 0.00 0.00 46 1006.4
20260503190531 42 241 10.0 20.0 0.00 0.00 0.00 48 1006.5
20260503190043 42 242 6.0 17.0 0.00 0.00 0.00 48 1006.4
20260503185530 43 254 8.0 17.0 0.00 0.00 0.00 49 1006.5
20260503185032 42 247 6.0 15.0 0.00 0.00 0.00 50 1006.5
20260503184545 41 259 8.0 18.0 0.00 0.00 0.00 50 1006.4
20260503184032 41 257 9.0 23.0 0.00 0.00 0.00 50 1006.5
20260503183529 41 252 10.0 23.0 0.00 0.00 0.00 49 1006.5
20260503183102 41 263 10.0 18.0 0.00 0.00 0.00 50 1006.5
20260503182532 41 236 8.0 17.0 0.00 0.00 0.00 49 1006.5
20260503182031 42 236 9.0 18.0 0.00 0.00 0.00 51 1006.4
20260503181608 42 273 10.0 20.0 0.00 0.00 0.00 51 1006.5
20260503181031 41 227 9.0 23.0 0.00 0.00 0.00 51 1006.4
20260503180603 41 246 10.0 23.0 0.00 0.00 0.00 51 1006.2
20260503180043 40 258 5.0 23.0 0.00 0.00 0.00 53 1006.4
20260503175531 40 267 8.0 23.0 0.00 0.00 0.00 53 1006.4
20260503175029 40 296 11.0 23.0 0.00 0.00 0.00 53 1006.4
20260503174543 41 252 9.0 18.0 0.00 0.00 0.00 52 1006.2
20260503174029 41 227 5.0 12.0 0.00 0.00 0.00 55 1006.5
20260503173529 41 205 6.0 15.0 0.00 0.00 0.00 55 1006.2
20260503173039 40 273 7.0 15.0 0.00 0.00 0.00 54 1006.4
20260503172534 41 238 6.0 24.0 0.00 0.00 0.00 53 1006.3
20260503172034 40 261 8.0 24.0 0.00 0.00 0.00 52 1006.4
20260503171547 41 307 8.0 15.0 0.00 0.00 0.00 52 1006.4
20260503171030 42 279 7.0 20.0 0.00 0.00 0.00 51 1006.2
20260503170529 41 319 8.0 20.0 0.00 0.00 0.00 51 1006.3
20260503150531 39 217 7.0 18.0 0.00 0.00 0.00 58 1006.5
20260503131033 36 260 7.0 16.0 0.00 0.00 0.00 73 1007.1
20260503130532 36 274 6.0 16.0 0.00 0.00 0.00 73 1007.0
20260503110535 33 157 4.0 14.0 0.00 0.03 0.00 84 1006.4
20260503081538 32 257 3.0 11.0 0.00 0.06 0.00 83 1006.9
20260503081033 32 217 3.0 11.0 0.00 0.06 0.00 82 1007.0
20260503080533 32 238 3.0 11.0 0.00 0.06 0.00 82 1007.1
20260503072533 33 271 3.0 10.0 0.00 0.09 0.00 79 1007.3
20260503072032 33 221 3.0 10.0 0.00 0.09 0.00 78 1007.5
20260503071545 33 234 4.0 8.0 0.00 0.09 0.00 78 1007.5
20260503071032 33 250 2.0 9.0 0.00 0.09 0.00 77 1007.6
20260503070532 33 279 3.0 9.0 0.00 0.09 0.00 77 1007.5
20260503060107 33 250 2.0 6.0 0.00 0.10 0.00 73 1007.9
20260503055030 33 246 3.0 7.0 0.00 0.10 0.00 73 1008.1
20260503054544 33 273 2.0 6.0 0.00 0.10 0.00 73 1008.0
20260503054030 33 240 2.0 7.0 0.00 0.10 0.00 72 1008.2
20260503053530 33 261 3.0 7.0 0.00 0.10 0.00 72 1008.3
20260503053042 33 259 2.0 8.0 0.00 0.10 0.00 72 1008.4
20260503052530 33 247 3.0 8.0 0.00 0.10 0.00 72 1008.5
20260503052030 33 252 3.0 8.0 0.00 0.10 0.00 72 1008.5
20260503051539 33 260 3.0 8.0 0.00 0.10 0.00 72 1008.5
20260503051033 33 249 3.0 10.0 0.00 0.10 0.00 71 1008.7
20260503050532 33 281 3.0 10.0 0.00 0.10 0.00 71 1008.8
20260503050039 33 252 3.0 7.0 0.00 0.10 0.00 71 1008.7
20260503045531 33 250 3.0 7.0 0.00 0.10 0.00 71 1008.9
20260503045033 33 256 2.0 7.0 0.00 0.10 0.00 71 1009.0
20260503044545 33 232 3.0 7.0 0.00 0.10 0.00 71 1008.9
20260503044029 33 256 3.0 8.0 0.00 0.10 0.00 71 1008.9
20260503043529 33 267 4.0 8.0 0.00 0.10 0.00 70 1008.9
20260503043045 33 272 3.0 8.0 0.00 0.10 0.00 71 1008.9
20260503042529 33 260 3.0 8.0 0.00 0.10 0.00 71 1009.1
20260503042029 33 254 4.0 8.0 0.00 0.10 0.00 71 1009.1
20260503041544 33 265 2.0 7.0 0.00 0.10 0.00 72 1009.2
20260503041032 33 248 3.0 8.0 0.00 0.10 0.00 71 1009.3
20260503040529 33 260 3.0 8.0 0.00 0.10 0.00 70 1009.4
20260503040041 33 254 3.0 8.0 0.00 0.10 0.00 70 1009.4
20260503035529 33 247 3.0 7.0 0.00 0.10 0.10 69 1009.5
20260503035029 33 261 3.0 7.0 0.00 0.10 0.10 69 1009.6
20260503034538 33 282 3.0 7.0 0.00 0.10 0.10 69 1009.6
20260503034028 33 256 3.0 9.0 0.00 0.10 0.10 68 1009.6
20260503033529 33 237 4.0 9.0 0.00 0.10 0.10 68 1009.5
20260503033054 33 251 4.0 8.0 0.00 0.10 0.10 68 1009.6
20260503032529 33 263 3.0 8.0 0.00 0.10 0.10 67 1009.5
20260503032029 33 248 3.0 6.0 0.00 0.10 0.10 67 1009.5
20260503031543 33 258 2.0 6.0 0.00 0.10 0.10 67 1009.6
20260503031030 33 239 2.0 5.0 0.00 0.10 0.10 66 1009.7
20260503030529 34 242 2.0 6.0 0.00 0.10 0.10 66 1009.6
20260503030043 34 248 2.0 8.0 0.00 0.10 0.10 65 1009.8
20260503025530 34 251 2.0 8.0 0.00 0.10 0.10 65 1009.8
20260503025029 34 255 3.0 8.0 0.00 0.10 0.10 65 1009.7
20260503024544 34 250 2.0 7.0 0.00 0.10 0.10 65 1009.7
20260503024029 34 252 2.0 7.0 0.00 0.10 0.10 64 1009.8
20260503023534 34 259 2.0 6.0 0.00 0.10 0.10 64 1009.8
20260503023037 34 265 2.0 7.0 0.00 0.10 0.10 63 1009.7
20260503022528 34 251 3.0 9.0 0.00 0.10 0.10 63 1009.8
20260503022036 35 254 3.0 9.0 0.00 0.10 0.10 63 1009.8
20260503021538 35 254 2.0 9.0 0.00 0.10 0.10 63 1009.9
20260503021032 35 249 3.0 9.0 0.00 0.10 0.10 62 1010.0
20260503020529 35 249 4.0 9.0 0.00 0.10 0.10 62 1009.9
20260503020045 35 248 4.0 8.0 0.00 0.10 0.10 63 1009.9
20260503015529 35 257 5.0 9.0 0.00 0.10 0.10 62 1010.0
20260503015030 35 216 5.0 10.0 0.00 0.10 0.10 61 1010.0
20260503014544 35 275 3.0 11.0 0.00 0.10 0.10 61 1010.0
20260503014029 35 246 5.0 11.0 0.00 0.10 0.10 61 1009.9
20260503013529 35 257 4.0 10.0 0.00 0.10 0.10 62 1009.9
20260503013052 36 251 4.0 10.0 0.00 0.10 0.10 61 1010.0
20260503012529 36 248 3.0 7.0 0.00 0.10 0.10 61 1009.9
20260503012030 36 255 3.0 7.0 0.00 0.10 0.10 60 1010.1
20260503011547 36 257 3.0 5.0 0.00 0.10 0.10 60 1010.1
20260503011035 36 259 3.0 5.0 0.00 0.10 0.10 60 1010.2
20260503010529 36 254 2.0 4.0 0.00 0.10 0.10 59 1010.2
20260503010058 37 244 2.0 7.0 0.00 0.10 0.10 59 1010.2
20260503005530 37 265 2.0 7.0 0.00 0.10 0.10 58 1010.1
20260503005033 37 255 3.0 8.0 0.00 0.10 0.10 58 1010.1
20260503004537 37 241 2.0 8.0 0.00 0.10 0.10 58 1010.0
20260503004028 38 229 2.0 11.0 0.00 0.10 0.10 58 1009.9
20260503003528 38 244 4.0 11.0 0.00 0.10 0.10 57 1010.0
20260503003044 38 209 3.0 9.0 0.00 0.10 0.10 58 1010.0
20260503002529 38 230 4.0 9.0 0.00 0.10 0.10 57 1009.9
20260503002028 38 236 3.0 9.0 0.00 0.10 0.10 57 1009.9
20260503001543 39 230 4.0 11.0 0.00 0.10 0.10 56 1009.9
20260503001029 39 248 4.0 11.0 0.00 0.10 0.10 56 1009.8
20260503000529 39 206 4.0 11.0 0.00 0.10 0.10 56 1009.7
20260503000043 39 276 4.0 12.0 0.00 0.10 0.10 57 1009.6
20260502235530 39 246 4.0 12.0 0.00 0.10 0.10 57 1009.6
20260502235030 40 239 3.0 14.0 0.00 0.10 0.10 57 1009.6
20260502234546 40 254 6.0 14.0 0.00 0.10 0.10 56 1009.7
20260502234029 40 253 4.0 11.0 0.00 0.10 0.10 56 1009.6
20260502233530 41 217 4.0 10.0 0.00 0.10 0.10 55 1009.5
20260502233039 41 263 4.0 10.0 0.00 0.10 0.10 55 1009.5
20260502232529 41 277 4.0 13.0 0.00 0.10 0.10 54 1009.4